EDUSAT

导读

EDUSAT是一颗由意大利(IT)于2011年8月17日08:00发射的卫星。该卫星延续了“教育卫星”的命名定位,依托意大利航天技术成果打造,主要服务于教育领域的远程连接需求,可支持偏远地区教育资源传输、远程教育课堂信号分发等应用,拓展了欧洲区域教育普惠覆盖范围,是民用航天服务社会发展的典型实践,助力缩小区域间教育资源差距。

基本信息
目录编号:
37788
目录名称:
EDUSAT
国际标识:
2011-044A
轨道中心:
EARTH
卫星名称:
EDUSAT
卫星全名:
--
卫星状态:
在轨 (已飞行5505 天)
发射日期:
2011-08-17 UTC
国别 :
意大利 (IT)
星等 :
--
该卫星已列入 空间交会检测服务 Space Conjunction Data Service (SCDS) ,当前飞行风险评估等级: 无高风险
轨道信息
数据来源 国际轨道数据
星历时间: 2026-09-12T00:53:30+0800
11小时前
查看轨道信息
半长轴: 7018.051km
偏心率: 0.0033652
轨道倾角: 98.258°
近地点辐角 202.351°
升交点赤经 154.364°
平近点角 212.413°
近地点: 616.296km
远地点: 663.532km
周期: 97.518分钟
每日圈数: 14.766516
详细信息
使用方式:
暂无
2D轨道图
3D轨道图
轨道高度分析图
轨道倾角分析图
轨道综合分析图
查看轨道综合分析图
交会数据列表
事件ID 空间交会对象 最接近时刻(TCA) 交会距离 交会风险概率(CRP) 交会风险指数(CRI) 操作
CDM_260913-210203-778804-392323
EDUSAT (37788)
2026-09-13T
21:02:12+0000
1.547 km
极远距离
6.06827E-6 低风险 0.51
CDM_260913-124603-778804-178626
EDUSAT (37788)
ALSAT 2B (41786)
2026-09-13T
12:46:52+0000
1.835 km
极远距离
3.590794E-6 低风险 0.46
CDM_260905-044503-467103-778824
EDUSAT (37788)
2026-09-05T
04:45:17+0000
2.119 km
极远距离
2.493721E-6 低风险 0.43
CDM_260913-112303-434303-778825
EDUSAT (37788)
2026-09-13T
11:23:51+0000
2.144 km
极远距离
2.231705E-6 低风险 0.42
与全量物体交会距离演化趋势
与全量物体交会风险概率演化趋势